Nature

Haifa Airport (HFA/LLHA) also known as U Michaeli Airport is a small international airport located in Haifa, Israel. It is located to the east of the city.
It mainly serves civilian flights, with some military usage. Most passenger flights utilizing the airport are domestic operations to Eilat and Tel Aviv.

AT EILAT AIRPORT YOU CAN FIND A SINGLE RUNWAY (16/34).

Scenery:

Sim Download Size Author
P3D & FSX LLHA Haifa v1.1 16.9MB Freeware Niv Tesler + Bar Rodoy
P3D & FSX ICVFR Haifa 32.8MB Freeware Chris Bell

Charts:

File Name
General Aerodrome Chart
Ground Parkings Chart
Ground Parkings G
Ground Parkings N
CVFR Entrance, and exit CVFR
CVFR Training Zones Chart
CVFR Traffic Pattrens Chart

METAR & TAF:

Available data for LLHA from the past hour
HAIFA (ISR-AFB)
TAF
TAF LLHA 211705Z 2118/2218 25005KT 9999 SCT030 BECMG 2119/2121 VRB03KT TEMPO 2121/2207 BKN025 BECMG 2207/2209 29010KT FEW030 TX30/2212Z TN24/2203Z